EWG15 EDDN-EDDH

Flight info

Callsign EWG15
Flight time 0h 48m
Altitude 30000
Route ERETO1G ERETO DCT LONLI M726 LASTO M852 LARET/N0424F340 M852 HLZ Z990 DIRBO/N0371F230 T902 RARUP RARUP3P
Aircraft A320/M-SDE3FGHIRWY/LB1

Departure

Time 2026-05-04 18:02
Airport Nuremberg Airport (EDDN)

Arrival

Time 2026-05-04 18:50
Airport Hamburg Helmut Schmidt Airport (EDDH)
Time Latitude Longitude Altitude Speed Heading
2026-05-04 17:28 49.49516 11.07790 1026 ft 0 kts 188°
2026-05-04 17:52 49.49518 11.07791 1026 ft 1 kts 188°
2026-05-04 17:52 49.49534 11.07794 1024 ft 3 kts 188°
2026-05-04 17:52 49.49552 11.07799 1026 ft 3 kts 184°
2026-05-04 17:52 49.49571 11.07797 1026 ft 3 kts 147°
2026-05-04 17:53 49.49583 11.07777 1025 ft 3 kts 109°
2026-05-04 17:53 49.49587 11.07753 1027 ft 1 kts 98°
2026-05-04 17:53 49.49587 11.07751 1027 ft 0 kts 98°
2026-05-04 17:55 49.49584 11.07780 1024 ft 9 kts 98°
2026-05-04 17:55 49.49569 11.07937 1027 ft 18 kts 98°
2026-05-04 17:56 49.49549 11.08140 1026 ft 20 kts 97°
2026-05-04 17:56 49.49540 11.08315 1029 ft 13 kts 68°
2026-05-04 17:56 49.49608 11.08381 1033 ft 11 kts 53°
2026-05-04 17:56 49.49611 11.08481 1035 ft 8 kts 99°
2026-05-04 17:57 49.49602 11.08570 1036 ft 12 kts 98°
2026-05-04 17:57 49.49585 11.08741 1037 ft 19 kts 98°
2026-05-04 17:57 49.49564 11.08949 1039 ft 20 kts 99°
2026-05-04 17:57 49.49549 11.09099 1041 ft 9 kts 98°
2026-05-04 17:58 49.49541 11.09181 1042 ft 6 kts 98°
2026-05-04 17:58 49.49532 11.09278 1044 ft 9 kts 98°
2026-05-04 17:58 49.49543 11.09384 1046 ft 13 kts 61°
2026-05-04 17:58 49.49589 11.09483 1049 ft 5 kts 54°
2026-05-04 17:59 49.49589 11.09484 1049 ft 0 kts 54°
2026-05-04 18:00 49.49605 11.09518 1050 ft 6 kts 53°
2026-05-04 18:00 49.49643 11.09564 1052 ft 10 kts 20°
2026-05-04 18:00 49.49702 11.09505 1052 ft 11 kts 290°
2026-05-04 18:00 49.49705 11.09477 1052 ft 0 kts 278°
2026-05-04 18:01 49.49705 11.09476 1052 ft 0 kts 278°
2026-05-04 18:02 49.49802 11.08492 1037 ft 116 kts 278°
2026-05-04 18:02 49.49951 11.06978 1031 ft 168 kts 280°
2026-05-04 18:02 49.50117 11.05112 1624 ft 176 kts 278°
2026-05-04 18:02 49.50263 11.03217 2372 ft 179 kts 278°
2026-05-04 18:03 49.50397 11.01254 2954 ft 190 kts 278°
2026-05-04 18:03 49.50543 10.99213 3523 ft 198 kts 277°
2026-05-04 18:03 49.50707 10.97078 4142 ft 203 kts 277°
2026-05-04 18:03 49.51034 10.94925 4746 ft 210 kts 292°
2026-05-04 18:04 49.51802 10.92979 5237 ft 223 kts 313°
2026-05-04 18:04 49.53228 10.91830 5600 ft 248 kts 351°
2026-05-04 18:04 49.56961 10.91913 6815 ft 282 kts
2026-05-04 18:05 49.58942 10.92212 7698 ft 288 kts
2026-05-04 18:05 49.60963 10.92472 8589 ft 294 kts
2026-05-04 18:05 49.63031 10.92663 9488 ft 300 kts
2026-05-04 18:05 49.65102 10.93115 10221 ft 311 kts 13°
2026-05-04 18:06 49.69595 10.94937 11114 ft 349 kts 14°
2026-05-04 18:06 49.71965 10.95935 11877 ft 356 kts 14°
2026-05-04 18:06 49.74370 10.96951 12667 ft 361 kts 14°
2026-05-04 18:07 49.76811 10.97979 13459 ft 366 kts 13°
2026-05-04 18:07 49.78451 10.98666 13948 ft 369 kts 13°
2026-05-04 18:07 49.80941 10.99701 14653 ft 373 kts 13°
2026-05-04 18:07 49.83465 11.00746 15371 ft 376 kts 13°
2026-05-04 18:08 49.86005 11.01798 16110 ft 379 kts 13°
2026-05-04 18:08 49.88564 11.02859 16841 ft 382 kts 13°
2026-05-04 18:08 49.91146 11.03932 17568 ft 386 kts 13°
2026-05-04 18:08 49.93758 11.05020 18277 ft 389 kts 13°
2026-05-04 18:09 49.99011 11.07208 19352 ft 396 kts 12°
2026-05-04 18:09 50.04377 11.09437 20562 ft 402 kts 13°
2026-05-04 18:10 50.07092 11.10570 21135 ft 405 kts 13°
2026-05-04 18:10 50.09833 11.11721 21690 ft 409 kts 13°
2026-05-04 18:10 50.12592 11.12883 22233 ft 412 kts 13°
2026-05-04 18:10 50.15378 11.14062 22784 ft 416 kts 13°
2026-05-04 18:11 50.18166 11.15244 23312 ft 419 kts 13°
2026-05-04 18:11 50.20996 11.16441 23779 ft 423 kts 13°
2026-05-04 18:11 50.23855 11.17641 24225 ft 425 kts 12°
2026-05-04 18:11 50.26723 11.18843 24674 ft 428 kts 12°
2026-05-04 18:12 50.29606 11.20057 25113 ft 430 kts 12°
2026-05-04 18:12 50.32509 11.21290 25549 ft 433 kts 12°
2026-05-04 18:12 50.35449 11.22224 25979 ft 432 kts
2026-05-04 18:12 50.38454 11.22419 26404 ft 430 kts 353°
2026-05-04 18:13 50.41435 11.22010 26832 ft 431 kts 350°
2026-05-04 18:13 50.44423 11.21547 27261 ft 433 kts 350°
2026-05-04 18:13 50.50433 11.20638 28076 ft 438 kts 350°
2026-05-04 18:14 50.53476 11.20178 28522 ft 440 kts 350°
2026-05-04 18:14 50.56536 11.19713 28890 ft 443 kts 350°
2026-05-04 18:14 50.59618 11.19244 29275 ft 446 kts 350°
2026-05-04 18:15 50.65826 11.18305 29941 ft 450 kts 350°
2026-05-04 18:15 50.71897 11.17405 29981 ft 425 kts 349°
2026-05-04 18:16 50.77756 11.16504 29980 ft 421 kts 349°
2026-05-04 18:16 50.83550 11.15605 29982 ft 420 kts 349°
2026-05-04 18:17 50.92269 11.14267 29976 ft 419 kts 349°
2026-05-04 18:18 51.01001 11.12918 29976 ft 419 kts 349°
2026-05-04 18:18 51.06771 11.12021 29984 ft 419 kts 349°
2026-05-04 18:19 51.15255 11.09404 29967 ft 408 kts 331°
2026-05-04 18:19 51.20422 11.05713 29964 ft 407 kts 330°
2026-05-04 18:20 51.25612 11.02009 29965 ft 407 kts 330°
2026-05-04 18:20 51.30779 10.98325 29993 ft 408 kts 330°
2026-05-04 18:21 51.35985 10.94632 29977 ft 410 kts 333°
2026-05-04 18:21 51.41629 10.92719 29968 ft 421 kts 351°
2026-05-04 18:22 51.47436 10.92053 29960 ft 421 kts 351°
2026-05-04 18:22 51.53301 10.91354 29958 ft 421 kts 351°
2026-05-04 18:23 51.59158 10.90652 29958 ft 422 kts 351°
2026-05-04 18:23 51.65004 10.89960 29956 ft 423 kts 351°
2026-05-04 18:24 51.70884 10.89179 29957 ft 423 kts 349°
2026-05-04 18:24 51.76741 10.88160 29958 ft 423 kts 348°
2026-05-04 18:25 51.82612 10.87147 29969 ft 425 kts 350°
2026-05-04 18:25 51.88498 10.86503 29964 ft 426 kts 352°
2026-05-04 18:26 51.94425 10.85994 29965 ft 426 kts 352°
2026-05-04 18:26 52.00353 10.85429 29959 ft 426 kts 352°
2026-05-04 18:27 52.06280 10.84807 29966 ft 426 kts 351°
2026-05-04 18:27 52.12156 10.84170 29967 ft 425 kts 351°
2026-05-04 18:28 52.18075 10.83543 29949 ft 425 kts 351°
2026-05-04 18:28 52.23979 10.82926 29940 ft 425 kts 351°
2026-05-04 18:29 52.26940 10.82619 29748 ft 426 kts 351°
2026-05-04 18:29 52.29868 10.82317 29464 ft 424 kts 351°
2026-05-04 18:29 52.32809 10.82011 29182 ft 422 kts 351°
2026-05-04 18:29 52.35733 10.81701 28908 ft 420 kts 351°
2026-05-04 18:30 52.41567 10.81085 28341 ft 417 kts 351°
2026-05-04 18:30 52.44456 10.80781 28080 ft 415 kts 351°
2026-05-04 18:30 52.47340 10.80476 27809 ft 414 kts 351°
2026-05-04 18:31 52.50175 10.80171 27454 ft 412 kts 351°
2026-05-04 18:31 52.53036 10.79863 27076 ft 410 kts 351°
2026-05-04 18:31 52.55886 10.79556 26698 ft 408 kts 351°
2026-05-04 18:31 52.58706 10.79253 26320 ft 405 kts 351°
2026-05-04 18:32 52.61495 10.78955 25934 ft 403 kts 351°
2026-05-04 18:32 52.64296 10.78660 25559 ft 401 kts 351°
2026-05-04 18:32 52.67070 10.78365 25192 ft 399 kts 351°
2026-05-04 18:32 52.69845 10.78069 24828 ft 397 kts 351°
2026-05-04 18:33 52.72599 10.77776 24470 ft 395 kts 351°
2026-05-04 18:33 52.75331 10.77480 24117 ft 392 kts 351°
2026-05-04 18:33 52.78051 10.77185 23782 ft 390 kts 351°
2026-05-04 18:33 52.80723 10.76896 23416 ft 388 kts 351°
2026-05-04 18:34 52.83407 10.76605 23007 ft 385 kts 351°
2026-05-04 18:34 52.86078 10.76315 22599 ft 383 kts 351°
2026-05-04 18:34 52.88729 10.76024 22198 ft 380 kts 351°
2026-05-04 18:34 52.91371 10.75735 21801 ft 378 kts 351°
2026-05-04 18:35 52.93996 10.75452 21411 ft 376 kts 352°
2026-05-04 18:35 52.96594 10.75177 21020 ft 373 kts 352°
2026-05-04 18:35 52.99181 10.74900 20643 ft 371 kts 352°
2026-05-04 18:35 53.01727 10.74621 20271 ft 369 kts 352°
2026-05-04 18:36 53.04294 10.74339 19898 ft 367 kts 352°
2026-05-04 18:36 53.06826 10.73955 19536 ft 361 kts 345°
2026-05-04 18:36 53.09233 10.72870 19179 ft 355 kts 340°
2026-05-04 18:36 53.11566 10.71739 18829 ft 351 kts 340°
2026-05-04 18:37 53.13912 10.70598 18460 ft 348 kts 340°
2026-05-04 18:37 53.16231 10.69470 18099 ft 346 kts 340°
2026-05-04 18:37 53.18534 10.68352 17699 ft 344 kts 340°
2026-05-04 18:37 53.20828 10.67236 17307 ft 341 kts 340°
2026-05-04 18:38 53.23110 10.66123 16910 ft 339 kts 340°
2026-05-04 18:38 53.25348 10.65024 16525 ft 338 kts 340°
2026-05-04 18:38 53.27596 10.63915 16158 ft 335 kts 340°
2026-05-04 18:38 53.29855 10.62806 15719 ft 334 kts 340°
2026-05-04 18:39 53.32053 10.61725 15278 ft 333 kts 340°
2026-05-04 18:39 53.34285 10.60623 14835 ft 333 kts 340°
2026-05-04 18:39 53.36505 10.59527 14399 ft 332 kts 340°
2026-05-04 18:39 53.38705 10.58439 13965 ft 331 kts 340°
2026-05-04 18:40 53.40918 10.57342 13512 ft 331 kts 340°
2026-05-04 18:40 53.43118 10.56249 13036 ft 330 kts 340°
2026-05-04 18:40 53.45324 10.55157 12569 ft 329 kts 340°
2026-05-04 18:40 53.47544 10.54059 12092 ft 332 kts 340°
2026-05-04 18:41 53.49737 10.52974 11589 ft 332 kts 340°
2026-05-04 18:41 53.51956 10.51876 11089 ft 331 kts 340°
2026-05-04 18:41 53.54158 10.50784 10605 ft 329 kts 340°
2026-05-04 18:41 53.56354 10.49692 10121 ft 328 kts 340°
2026-05-04 18:42 53.58530 10.48609 9611 ft 322 kts 340°
2026-05-04 18:42 53.60639 10.47558 9084 ft 310 kts 340°
2026-05-04 18:42 53.62693 10.46533 8563 ft 305 kts 340°
2026-05-04 18:42 53.64719 10.45519 8054 ft 302 kts 340°
2026-05-04 18:43 53.66723 10.44517 7541 ft 295 kts 340°
2026-05-04 18:43 53.68637 10.43567 7058 ft 283 kts 340°
2026-05-04 18:43 53.70497 10.42641 6571 ft 276 kts 340°
2026-05-04 18:43 53.72325 10.41721 6066 ft 272 kts 340°
2026-05-04 18:44 53.74132 10.40805 5557 ft 271 kts 340°
2026-05-04 18:44 53.74741 10.40496 5379 ft 272 kts 340°
2026-05-04 18:44 53.77694 10.38856 4995 ft 263 kts 328°
2026-05-04 18:44 53.78978 10.36754 4886 ft 256 kts 296°
2026-05-04 18:45 53.79389 10.33895 4745 ft 252 kts 266°
2026-05-04 18:45 53.78862 10.31137 4641 ft 253 kts 237°
2026-05-04 18:45 53.77772 10.28781 4371 ft 254 kts 231°
2026-05-04 18:45 53.76629 10.26509 4039 ft 253 kts 231°
2026-05-04 18:46 53.75513 10.24245 3710 ft 247 kts 232°
2026-05-04 18:46 53.74450 10.22071 3396 ft 232 kts 232°
2026-05-04 18:46 53.73458 10.20040 3089 ft 220 kts 232°
2026-05-04 18:46 53.72511 10.18105 2797 ft 204 kts 232°
2026-05-04 18:47 53.71648 10.16343 2550 ft 187 kts 232°
2026-05-04 18:47 53.70845 10.14704 2298 ft 176 kts 232°
2026-05-04 18:47 53.70082 10.13149 2061 ft 170 kts 233°
2026-05-04 18:47 53.69587 10.12140 1917 ft 161 kts 233°
2026-05-04 18:48 53.68689 10.10313 1638 ft 144 kts 233°
2026-05-04 18:48 53.68064 10.09040 1441 ft 138 kts 234°
2026-05-04 18:48 53.67657 10.08211 1318 ft 137 kts 233°
2026-05-04 18:48 53.67048 10.06970 1130 ft 136 kts 234°
2026-05-04 18:49 53.66442 10.05738 948 ft 136 kts 234°
2026-05-04 18:49 53.65843 10.04521 772 ft 134 kts 234°
2026-05-04 18:49 53.65242 10.03301 596 ft 135 kts 233°
2026-05-04 18:49 53.64650 10.02088 407 ft 133 kts 235°
2026-05-04 18:50 53.64051 10.00886 238 ft 134 kts 232°
2026-05-04 18:50 53.63470 9.99705 57 ft 131 kts 234°
2026-05-04 18:50 53.62956 9.98653 43 ft 92 kts 231°
2026-05-04 18:50 53.62655 9.98048 42 ft 42 kts 230°
2026-05-04 18:51 53.62526 9.97790 41 ft 23 kts 220°
2026-05-04 18:51 53.62456 9.97810 42 ft 8 kts 148°
2026-05-04 18:51 53.62433 9.97857 44 ft 4 kts 115°
2026-05-04 18:51 53.62438 9.97997 46 ft 15 kts 70°
2026-05-04 18:52 53.62488 9.98142 47 ft 14 kts 51°
2026-05-04 18:52 53.62545 9.98259 47 ft 12 kts 50°
2026-05-04 18:52 53.62616 9.98401 47 ft 18 kts 50°
2026-05-04 18:52 53.62703 9.98578 47 ft 21 kts 50°
2026-05-04 18:53 53.62801 9.98775 47 ft 23 kts 50°
2026-05-04 18:53 53.62910 9.98996 47 ft 21 kts 50°
2026-05-04 18:53 53.62994 9.99168 47 ft 20 kts 50°
2026-05-04 18:53 53.63084 9.99364 47 ft 22 kts 56°
2026-05-04 18:54 53.63179 9.99587 47 ft 20 kts 49°
2026-05-04 18:54 53.63277 9.99764 48 ft 22 kts 46°
2026-05-04 18:54 53.63382 9.99969 48 ft 24 kts 50°
2026-05-04 18:54 53.63429 10.00155 48 ft 16 kts 110°
2026-05-04 18:55 53.63338 10.00233 48 ft 15 kts 175°
2026-05-04 18:55 53.63202 10.00249 48 ft 2 kts 176°
2026-05-04 18:55 53.63195 10.00250 48 ft 0 kts 175°
2026-05-04 18:56 53.63176 10.00252 48 ft 7 kts 176°
2026-05-04 18:56 53.63130 10.00257 48 ft 6 kts 176°
2026-05-04 18:56 53.63088 10.00272 47 ft 6 kts 144°
2026-05-04 18:57 53.63075 10.00332 68 ft 5 kts 96°
2026-05-04 18:57 53.63074 10.00375 48 ft 0 kts 93°